Time,TemperatureF,DewpointF,PressureIn,WindDirection,WindDirectionDegrees,WindSpeedMPH,WindSpeedGustMPH,Humidity,HourlyPrecipIn,Conditions,Clouds,dailyrainin,SolarRadiationWatts/m^2,SoftwareType,DateUTC
2013-07-06 00:01:00,63.0,41.0,-100.00,West,268,2.0,6.0,44,0.00,,,0.00,1.000000,,2013-07-06 06:01:00,
2013-07-06 00:12:00,63.0,41.0,-100.00,West,268,2.0,6.0,44,0.00,,,0.00,1.000000,,2013-07-06 06:12:00,
2013-07-06 00:22:00,63.0,41.0,-100.00,West,268,2.0,6.0,44,0.00,,,0.00,1.000000,,2013-07-06 06:22:00,
2013-07-06 00:33:00,63.0,41.0,-100.00,West,268,2.0,6.0,44,0.00,,,0.00,1.000000,,2013-07-06 06:33:00,
2013-07-06 01:02:00,65.0,43.0,-100.00,ESE,104,2.0,5.0,45,0.00,,,0.00,1.000000,,2013-07-06 07:02:00,
2013-07-06 01:12:00,65.0,43.0,-100.00,ESE,104,2.0,5.0,45,0.00,,,0.00,1.000000,,2013-07-06 07:12:00,
2013-07-06 01:22:00,65.0,43.0,-100.00,ESE,104,2.0,5.0,45,0.00,,,0.00,1.000000,,2013-07-06 07:22:00,
2013-07-06 01:33:00,65.0,43.0,-100.00,ESE,104,2.0,5.0,45,0.00,,,0.00,1.000000,,2013-07-06 07:33:00,
2013-07-06 02:02:00,65.0,39.0,-100.00,NE,47,2.0,6.0,39,0.00,,,0.00,1.000000,,2013-07-06 08:02:00,
2013-07-06 02:11:00,65.0,39.0,-100.00,NE,47,2.0,6.0,39,0.00,,,0.00,1.000000,,2013-07-06 08:11:00,
2013-07-06 02:21:00,65.0,39.0,-100.00,NE,47,2.0,6.0,39,0.00,,,0.00,1.000000,,2013-07-06 08:21:00,
2013-07-06 02:33:00,65.0,39.0,-100.00,NE,47,2.0,6.0,39,0.00,,,0.00,1.000000,,2013-07-06 08:33:00,
2013-07-06 03:02:00,60.0,39.0,-100.00,ENE,77,0.0,3.0,45,0.00,,,0.00,1.000000,,2013-07-06 09:02:00,
2013-07-06 03:11:00,60.0,39.0,-100.00,ENE,77,0.0,3.0,45,0.00,,,0.00,1.000000,,2013-07-06 09:11:00,
2013-07-06 03:22:00,60.0,39.0,-100.00,ENE,77,0.0,3.0,45,0.00,,,0.00,1.000000,,2013-07-06 09:22:00,
2013-07-06 03:33:00,60.0,39.0,-100.00,ENE,77,0.0,3.0,45,0.00,,,0.00,1.000000,,2013-07-06 09:33:00,
2013-07-06 04:02:00,60.0,40.0,-100.00,ESE,106,1.0,4.0,47,0.00,,,0.00,1.000000,,2013-07-06 10:02:00,
2013-07-06 04:11:00,60.0,40.0,-100.00,ESE,106,1.0,4.0,47,0.00,,,0.00,1.000000,,2013-07-06 10:11:00,
2013-07-06 04:22:00,60.0,40.0,-100.00,ESE,106,1.0,4.0,47,0.00,,,0.00,1.000000,,2013-07-06 10:22:00,
2013-07-06 04:33:00,60.0,40.0,-100.00,ESE,106,1.0,4.0,47,0.00,,,0.00,1.000000,,2013-07-06 10:33:00,
2013-07-06 05:01:00,62.0,39.0,-100.00,ENE,71,2.0,3.0,43,0.00,,,0.00,1.000000,,2013-07-06 11:01:00,
2013-07-06 05:11:00,62.0,39.0,-100.00,ENE,71,2.0,3.0,43,0.00,,,0.00,1.000000,,2013-07-06 11:11:00,
2013-07-06 05:22:00,62.0,39.0,-100.00,ENE,71,2.0,3.0,43,0.00,,,0.00,1.000000,,2013-07-06 11:22:00,
2013-07-06 05:33:00,62.0,39.0,-100.00,ENE,71,2.0,3.0,43,0.00,,,0.00,1.000000,,2013-07-06 11:33:00,
2013-07-06 06:01:00,61.0,41.0,-100.00,East,99,2.0,3.0,48,0.00,,,0.00,1.000000,,2013-07-06 12:01:00,
2013-07-06 06:11:00,61.0,41.0,-100.00,East,99,2.0,3.0,48,0.00,,,0.00,1.000000,,2013-07-06 12:11:00,
2013-07-06 06:22:00,61.0,41.0,-100.00,East,99,2.0,3.0,48,0.00,,,0.00,1.000000,,2013-07-06 12:22:00,
2013-07-06 06:33:00,61.0,41.0,-100.00,East,99,2.0,3.0,48,0.00,,,0.00,1.000000,,2013-07-06 12:33:00,
2013-07-06 07:01:00,63.0,40.0,-100.00,South,172,4.0,5.0,43,0.00,,,0.00,8.000000,,2013-07-06 13:01:00,
2013-07-06 07:12:00,63.0,40.0,-100.00,South,172,4.0,5.0,43,0.00,,,0.00,8.000000,,2013-07-06 13:12:00,
2013-07-06 07:22:00,63.0,40.0,-100.00,South,172,4.0,5.0,43,0.00,,,0.00,8.000000,,2013-07-06 13:22:00,
2013-07-06 07:33:00,63.0,40.0,-100.00,South,172,4.0,5.0,43,0.00,,,0.00,8.000000,,2013-07-06 13:33:00,
2013-07-06 08:02:00,67.0,41.0,-100.00,SSE,161,3.0,6.0,39,0.00,,,0.00,68.000000,,2013-07-06 14:02:00,
2013-07-06 08:11:00,67.0,41.0,-100.00,SSE,161,3.0,6.0,39,0.00,,,0.00,68.000000,,2013-07-06 14:11:00,
2013-07-06 08:22:00,67.0,41.0,-100.00,SSE,161,3.0,6.0,39,0.00,,,0.00,68.000000,,2013-07-06 14:22:00,
2013-07-06 08:34:00,67.0,41.0,-100.00,SSE,161,3.0,6.0,39,0.00,,,0.00,68.000000,,2013-07-06 14:34:00,
2013-07-06 09:02:00,74.0,43.0,-100.00,SW,230,6.0,11.0,33,0.00,,,0.00,256.000000,,2013-07-06 15:02:00,
2013-07-06 09:12:00,74.0,43.0,-100.00,SW,230,6.0,11.0,33,0.00,,,0.00,256.000000,,2013-07-06 15:12:00,
2013-07-06 09:22:00,74.0,43.0,-100.00,SW,230,6.0,11.0,33,0.00,,,0.00,256.000000,,2013-07-06 15:22:00,
2013-07-06 09:33:00,74.0,43.0,-100.00,SW,230,6.0,11.0,33,0.00,,,0.00,256.000000,,2013-07-06 15:33:00,
2013-07-06 10:05:00,72.0,44.0,-100.00,WSW,240,7.0,11.0,36,0.00,,,0.00,174.000000,,2013-07-06 16:05:00,
2013-07-06 10:23:00,72.0,44.0,-100.00,WSW,240,7.0,11.0,36,0.00,,,0.00,174.000000,,2013-07-06 16:23:00,
2013-07-06 10:36:00,78.0,45.0,-100.00,WSW,244,5.0,11.0,31,0.00,,,0.00,543.000000,,2013-07-06 16:36:00,
2013-07-06 11:07:00,78.0,45.0,-100.00,WSW,244,5.0,11.0,31,0.00,,,0.00,543.000000,,2013-07-06 17:07:00,
2013-07-06 11:17:00,78.0,45.0,-100.00,WSW,244,5.0,11.0,31,0.00,,,0.00,543.000000,,2013-07-06 17:17:00,
2013-07-06 11:26:00,78.0,45.0,-100.00,WSW,244,5.0,11.0,31,0.00,,,0.00,543.000000,,2013-07-06 17:26:00,
2013-07-06 11:36:00,81.0,45.0,-100.00,West,269,5.0,12.0,28,0.00,,,0.00,737.000000,,2013-07-06 17:36:00,
2013-07-06 12:06:00,81.0,45.0,-100.00,West,269,5.0,12.0,28,0.00,,,0.00,737.000000,,2013-07-06 18:06:00,
2013-07-06 13:08:00,84.0,44.0,-100.00,West,260,5.0,11.0,25,0.00,,,0.00,882.000000,,2013-07-06 19:08:00,
2013-07-06 13:16:00,84.0,44.0,-100.00,West,260,5.0,11.0,25,0.00,,,0.00,882.000000,,2013-07-06 19:16:00,
2013-07-06 13:35:00,84.0,44.0,-100.00,West,260,5.0,11.0,25,0.00,,,0.00,882.000000,,2013-07-06 19:35:00,
2013-07-06 13:36:00,83.0,44.0,-100.00,West,270,5.0,11.0,25,0.00,,,0.00,733.000000,,2013-07-06 19:36:00,
2013-07-06 14:07:00,83.0,44.0,-100.00,West,270,5.0,11.0,25,0.00,,,0.00,733.000000,,2013-07-06 20:07:00,
2013-07-06 14:26:00,83.0,44.0,-100.00,West,270,5.0,11.0,25,0.00,,,0.00,733.000000,,2013-07-06 20:26:00,
2013-07-06 14:36:00,80.0,45.0,-100.00,East,81,7.0,11.0,29,0.00,,,0.00,332.000000,,2013-07-06 20:36:00,
2013-07-06 15:07:00,80.0,45.0,-100.00,East,81,7.0,11.0,29,0.00,,,0.00,332.000000,,2013-07-06 21:07:00,
2013-07-06 15:14:00,80.0,45.0,-100.00,East,81,7.0,11.0,29,0.00,,,0.00,332.000000,,2013-07-06 21:14:00,
2013-07-06 15:26:00,80.0,45.0,-100.00,East,81,7.0,11.0,29,0.00,,,0.00,332.000000,,2013-07-06 21:26:00,
2013-07-06 15:36:00,75.0,41.0,-100.00,ENE,75,6.0,14.0,29,0.00,,,0.00,170.000000,,2013-07-06 21:36:00,
2013-07-06 16:17:00,75.0,41.0,-100.00,ENE,75,6.0,14.0,29,0.00,,,0.00,170.000000,,2013-07-06 22:17:00,
2013-07-06 17:17:00,56.0,55.0,-100.00,ENE,58,5.0,15.0,95,0.90,,,0.90,32.000000,,2013-07-06 23:17:00,
2013-07-06 18:08:00,59.0,55.0,-100.00,NNE,16,4.0,9.0,86,0.21,,,1.11,26.000000,,2013-07-07 00:08:00,
2013-07-06 18:17:00,59.0,55.0,-100.00,NNE,16,4.0,9.0,86,0.21,,,1.11,26.000000,,2013-07-07 00:17:00,
2013-07-06 18:24:00,59.0,55.0,-100.00,NNE,16,4.0,9.0,86,0.21,,,1.11,26.000000,,2013-07-07 00:24:00,
2013-07-06 18:35:00,59.0,55.0,-100.00,NNE,16,4.0,9.0,86,0.21,,,1.11,26.000000,,2013-07-07 00:35:00,
2013-07-06 19:07:00,59.0,54.0,-100.00,ESE,121,5.0,11.0,83,0.05,,,1.16,38.000000,,2013-07-07 01:07:00,
2013-07-06 19:15:00,59.0,54.0,-100.00,ESE,121,5.0,11.0,83,0.05,,,1.16,38.000000,,2013-07-07 01:15:00,
2013-07-06 19:34:00,59.0,54.0,-100.00,ESE,121,5.0,11.0,83,0.05,,,1.16,38.000000,,2013-07-07 01:34:00,
2013-07-06 20:07:00,60.0,53.0,-100.00,SE,130,5.0,8.0,79,0.00,,,1.16,47.000000,,2013-07-07 02:07:00,
2013-07-06 20:16:00,60.0,53.0,-100.00,SE,130,5.0,8.0,79,0.00,,,1.16,47.000000,,2013-07-07 02:16:00,
2013-07-06 20:33:00,60.0,53.0,-100.00,SE,130,5.0,8.0,79,0.00,,,1.16,47.000000,,2013-07-07 02:33:00,
2013-07-06 21:15:00,61.0,53.0,-100.00,ESE,107,4.0,8.0,74,0.00,,,1.16,23.000000,,2013-07-07 03:15:00,
2013-07-06 21:23:00,61.0,53.0,-100.00,ESE,107,4.0,8.0,74,0.00,,,1.16,23.000000,,2013-07-07 03:23:00,
2013-07-06 21:32:00,61.0,53.0,-100.00,ESE,107,4.0,8.0,74,0.00,,,1.16,23.000000,,2013-07-07 03:32:00,
2013-07-06 22:01:00,60.0,54.0,-100.00,SSE,147,3.0,8.0,80,0.00,,,1.16,1.000000,,2013-07-07 04:01:00,
2013-07-06 22:11:00,60.0,54.0,-100.00,SSE,147,3.0,8.0,80,0.00,,,1.16,1.000000,,2013-07-07 04:11:00,
2013-07-06 22:21:00,60.0,54.0,-100.00,SSE,147,3.0,8.0,80,0.00,,,1.16,1.000000,,2013-07-07 04:21:00,
2013-07-06 22:31:00,60.0,54.0,-100.00,SSE,147,3.0,8.0,80,0.00,,,1.16,1.000000,,2013-07-07 04:31:00,
2013-07-06 23:01:00,60.0,54.0,-100.00,ENE,76,4.0,6.0,80,0.00,,,1.16,1.000000,,2013-07-07 05:01:00,
2013-07-06 23:11:00,60.0,54.0,-100.00,ENE,76,4.0,6.0,80,0.00,,,1.16,1.000000,,2013-07-07 05:11:00,
2013-07-06 23:21:00,60.0,54.0,-100.00,ENE,76,4.0,6.0,80,0.00,,,1.16,1.000000,,2013-07-07 05:21:00,
2013-07-06 23:31:00,60.0,54.0,-100.00,ENE,76,4.0,6.0,80,0.00,,,1.16,1.000000,,2013-07-07 05:31:00,